Frankfort, MI

6:12 AM EST on December 16, 2019 (GMT -0500)
Frankfort

Weather History for KFKS - October, 2019

Change the Weather History Date:

Thursday, October 10, 2019

  Actual Average (KMBL) Record (KMBL)
Temperature  
Mean Temperature 63 °F -  
Max Temperature 74 °F 59 °F 82 °F (1949)
Min Temperature 52 °F 40 °F 26 °F (2000)
Degree Days  
Heating Degree Days 2    
Growing Degree Days 13 (Base 50)    
Moisture  
Dew Point 49 °F    
Average Humidity 61    
Maximum Humidity 77    
Minimum Humidity 43    
Precipitation  
Precipitation 0.00 in - - ()
Sea Level Pressure  
Sea Level Pressure 30.12 in    
Wind  
Wind Speed 6 mph (SE)    
Max Wind Speed 15 mph    
Max Gust Speed 21 mph    
Visibility 10 miles    
Events      
Averages and records for this station are not official NWS values.
T = Trace of Precipitation, MM = Missing Value Source: NWS Daily Summary

Daily Weather History Graph

Daily Weather History Graph

Search for Another Location

Airport or City:

Astronomy

Oct. 10, 2019 Rise Set
Actual Time 7:53 AM EDT 7:09 PM EDT
Civil Twilight 7:24 AM EDT 7:38 PM EDT
Nautical Twilight 6:50 AM EDT 8:12 PM EDT
Astronomical Twilight 6:16 AM EDT 8:46 PM EDT
Moon 6:20 PM EDT (10/10) 4:25 AM EDT (10/10)
Length of Visible Light 12h 14m
Length of Day
11h 15m
Waxing Gibbous, 91% of the Moon is Illuminated
Oct 10
Waxing Gibbous
Oct 13
Full
Oct 21
Last Quarter
Oct 27
New
Nov 4
First Quarter

Hourly Weather History & Observations

Time (EDT) Temp. Dew Point Humidity Pressure Visibility Wind Dir Wind Speed Gust Speed Precip Events Conditions
12:17 AM 54.9 °F 47.3 °F 76% 30.18 in 10.0 mi Calm Calm - N/A   Clear
12:35 AM 54.5 °F 47.3 °F 77% 30.18 in 10.0 mi Calm Calm - N/A   Clear
12:36 AM 54.5 °F 47.3 °F 77% 30.18 in 10.0 mi Calm Calm - N/A   Clear
12:55 AM 55.2 °F 47.3 °F 75% 30.18 in 10.0 mi SE 3.5 mph - N/A   Clear
12:56 AM 55.4 °F 47.3 °F 74% 30.18 in 10.0 mi SE 3.5 mph - N/A   Clear
1:15 AM 55.8 °F 47.7 °F 74% 30.18 in 10.0 mi SE 3.5 mph - N/A   Clear
1:20 AM 55.9 °F 47.7 °F 74% 30.18 in 10.0 mi SE 4.6 mph - N/A   Clear
1:38 AM 55.9 °F 47.5 °F 73% 30.17 in 10.0 mi SE 4.6 mph - N/A   Clear
1:56 AM 55.6 °F 47.5 °F 74% 30.17 in 10.0 mi SE 5.8 mph - N/A   Clear
2:15 AM 55.8 °F 47.3 °F 73% 30.18 in 10.0 mi SE 5.8 mph - N/A   Clear
2:35 AM 56.3 °F 46.9 °F 71% 30.18 in 10.0 mi ESE 6.9 mph - N/A   Clear
2:36 AM 56.3 °F 46.9 °F 71% 30.18 in 10.0 mi ESE 6.9 mph - N/A   Clear
2:59 AM 57.0 °F 46.4 °F 68% 30.17 in 10.0 mi ESE 6.9 mph - N/A   Clear
3:17 AM 56.5 °F 46.4 °F 69% 30.17 in 10.0 mi ESE 6.9 mph - N/A   Clear
3:35 AM 55.9 °F 46.4 °F 70% 30.17 in 10.0 mi ESE 5.8 mph - N/A   Clear
3:55 AM 55.9 °F 45.9 °F 69% 30.17 in 10.0 mi SE 8.1 mph - N/A   Clear
3:56 AM 55.9 °F 45.9 °F 69% 30.17 in 10.0 mi SE 8.1 mph - N/A   Clear
4:15 AM 55.9 °F 45.5 °F 68% 30.17 in 10.0 mi ESE 5.8 mph - N/A   Clear
4:20 AM 55.9 °F 45.5 °F 68% 30.17 in 10.0 mi ESE 6.9 mph - N/A   Clear
4:38 AM 56.3 °F 45.1 °F 66% 30.16 in 10.0 mi ESE 8.1 mph - N/A   Clear
4:56 AM 55.6 °F 45.0 °F 67% 30.16 in 10.0 mi ESE 6.9 mph - N/A   Clear
5:15 AM 55.0 °F 45.0 °F 69% 30.17 in 10.0 mi ESE 8.1 mph - N/A   Clear
5:16 AM 55.0 °F 45.0 °F 69% 30.17 in 10.0 mi ESE 8.1 mph - N/A   Clear
5:35 AM 54.7 °F 44.8 °F 69% 30.16 in 10.0 mi ESE 6.9 mph - N/A   Clear
5:36 AM 54.7 °F 44.8 °F 69% 30.16 in 10.0 mi ESE 8.1 mph - N/A   Clear
5:59 AM 54.1 °F 44.8 °F 71% 30.17 in 10.0 mi SE 5.8 mph - N/A   Clear
6:17 AM 54.1 °F 44.8 °F 71% 30.17 in 10.0 mi SE 5.8 mph - N/A   Clear
6:35 AM 54.1 °F 45.0 °F 71% 30.18 in 10.0 mi SE 5.8 mph - N/A   Clear
6:55 AM 54.9 °F 45.1 °F 70% 30.17 in 10.0 mi SE 5.8 mph - N/A   Clear
6:56 AM 54.9 °F 45.1 °F 70% 30.17 in 10.0 mi SE 5.8 mph - N/A   Clear
7:15 AM 54.7 °F 45.5 °F 71% 30.17 in 10.0 mi SE 5.8 mph - N/A   Clear
7:20 AM 54.9 °F 45.5 °F 71% 30.17 in 10.0 mi SE 5.8 mph - N/A   Clear
7:38 AM 54.3 °F 45.3 °F 72% 30.16 in 10.0 mi ESE 8.1 mph - N/A   Clear
7:56 AM 53.8 °F 45.5 °F 74% 30.16 in 10.0 mi SE 5.8 mph - N/A   Clear
8:15 AM 53.6 °F 45.3 °F 74% 30.16 in 10.0 mi Calm Calm - N/A   Clear
8:35 AM 52.0 °F 45.0 °F 77% 30.16 in 10.0 mi East 4.6 mph - N/A   Clear
8:36 AM 52.0 °F 45.0 °F 77% 30.16 in 10.0 mi East 4.6 mph - N/A   Clear
8:59 AM 54.5 °F 45.9 °F 73% 30.16 in 10.0 mi SE 3.5 mph - N/A   Clear
9:17 AM 55.9 °F 46.4 °F 70% 30.16 in 10.0 mi ESE 4.6 mph - N/A   Clear
9:35 AM 56.7 °F 46.4 °F 69% 30.15 in 10.0 mi SE 6.9 mph - N/A   Clear
9:55 AM 58.3 °F 46.8 °F 66% 30.15 in 10.0 mi SE 8.1 mph - N/A   Clear
9:56 AM 58.3 °F 46.8 °F 66% 30.15 in 10.0 mi SE 6.9 mph - N/A   Clear
10:15 AM 59.9 °F 47.5 °F 64% 30.15 in 10.0 mi SE 9.2 mph - N/A   Clear
10:20 AM 60.3 °F 47.7 °F 63% 30.14 in 10.0 mi SE 10.4 mph - N/A   Clear
10:38 AM 61.2 °F 48.2 °F 62% 30.15 in 10.0 mi ESE 9.2 mph - N/A   Clear
10:56 AM 62.4 °F 48.6 °F 60% 30.15 in 10.0 mi ESE 8.1 mph - N/A   Clear
11:15 AM 63.7 °F 49.5 °F 60% 30.15 in 10.0 mi SE 8.1 mph - N/A   Clear
11:16 AM 63.9 °F 49.5 °F 59% 30.15 in 10.0 mi ESE 8.1 mph - N/A   Clear
11:35 AM 65.5 °F 50.2 °F 58% 30.15 in 10.0 mi ESE 9.2 mph 16.1 mph N/A   Clear
11:36 AM 65.7 °F 50.0 °F 57% 30.15 in 10.0 mi SE 9.2 mph 16.1 mph N/A   Clear
11:59 AM 66.7 °F 50.5 °F 56% 30.15 in 10.0 mi SE 10.4 mph - N/A   Clear
12:17 PM 68.5 °F 51.4 °F 54% 30.15 in 10.0 mi ESE 11.5 mph - N/A   Clear
12:35 PM 69.4 °F 52.3 °F 54% 30.15 in 10.0 mi SSE 9.2 mph - N/A   Clear
12:55 PM 70.2 °F 52.3 °F 53% 30.14 in 10.0 mi SE 11.5 mph - N/A   Clear
12:56 PM 70.0 °F 52.3 °F 53% 30.14 in 10.0 mi SE 10.4 mph - N/A   Clear
1:15 PM 69.8 °F 52.3 °F 54% 30.13 in 10.0 mi SSE 11.5 mph - N/A   Clear
1:20 PM 70.2 °F 52.7 °F 54% 30.13 in 10.0 mi SE 11.5 mph - N/A   Clear
1:38 PM 71.2 °F 51.8 °F 50% 30.12 in 10.0 mi SE 11.5 mph 16.1 mph N/A   Clear
1:56 PM 72.7 °F 52.3 °F 49% 30.12 in 10.0 mi SSE 10.4 mph 16.1 mph N/A   Clear
2:15 PM 72.3 °F 52.7 °F 50% 30.12 in 10.0 mi SSE 10.4 mph 17.3 mph N/A   Clear
2:35 PM 72.1 °F 53.1 °F 51% 30.11 in 10.0 mi South 8.1 mph - N/A   Scattered Clouds
2:36 PM 72.1 °F 52.9 °F 51% 30.11 in 10.0 mi SSE 6.9 mph - N/A   Scattered Clouds
3:17 PM 74.5 °F 51.6 °F 45% 30.09 in 10.0 mi SSE 15.0 mph - N/A   Mostly Cloudy
3:35 PM 74.1 °F 50.5 °F 43% 30.08 in 10.0 mi SSE 11.5 mph 17.3 mph N/A   Scattered Clouds
3:55 PM 73.6 °F 50.9 °F 45% 30.07 in 10.0 mi SSE 9.2 mph 17.3 mph N/A   Clear
4:15 PM 74.3 °F 50.9 °F 44% 30.06 in 10.0 mi SSE 13.8 mph 20.7 mph N/A   Clear
4:20 PM 74.1 °F 50.4 °F 43% 30.06 in 10.0 mi SSE 13.8 mph 20.7 mph N/A   Clear
4:38 PM 73.6 °F 50.7 °F 45% 30.06 in 10.0 mi SSE 12.7 mph 16.1 mph N/A   Clear
4:56 PM 73.8 °F 50.9 °F 45% 30.05 in 10.0 mi SE 12.7 mph 17.3 mph N/A   Clear
5:15 PM 73.4 °F 51.1 °F 45% 30.05 in 10.0 mi SE 9.2 mph - N/A   Clear
5:35 PM 73.0 °F 50.7 °F 45% 30.05 in 10.0 mi ESE 9.2 mph - N/A   Clear
5:59 PM 72.5 °F 51.1 °F 47% 30.05 in 10.0 mi SE 8.1 mph - N/A   Clear
6:17 PM 71.6 °F 51.1 °F 48% 30.05 in 10.0 mi SE 6.9 mph 10.4 mph N/A   Clear
6:35 PM 70.5 °F 51.6 °F 51% 30.05 in 10.0 mi SE 6.9 mph - N/A   Clear
6:55 PM 69.1 °F 52.3 °F 55% 30.05 in 10.0 mi ESE 3.5 mph - N/A   Clear
7:15 PM 68.4 °F 52.2 °F 56% 30.05 in 10.0 mi ESE 4.6 mph - N/A   Clear
7:20 PM 68.4 °F 52.2 °F 56% 30.05 in 10.0 mi ESE 4.6 mph - N/A   Clear
7:38 PM 68.2 °F 51.8 °F 56% 30.05 in 10.0 mi ESE 6.9 mph - N/A   Clear
7:56 PM 68.0 °F 51.8 °F 56% 30.05 in 10.0 mi ESE 4.6 mph - N/A   Clear
8:15 PM 67.6 °F 51.4 °F 56% 30.05 in 10.0 mi ESE 5.8 mph - N/A   Clear
8:35 PM 67.6 °F 51.1 °F 55% 30.05 in 10.0 mi ESE 6.9 mph - N/A   Clear
8:36 PM 67.6 °F 51.1 °F 55% 30.05 in 10.0 mi ESE 6.9 mph - N/A   Clear
8:59 PM 66.9 °F 50.9 °F 56% 30.03 in 10.0 mi East 9.2 mph - N/A   Clear
9:17 PM 66.4 °F 50.5 °F 57% 30.03 in 10.0 mi ESE 8.1 mph - N/A   Clear
9:35 PM 66.2 °F 50.4 °F 57% 30.02 in 10.0 mi ESE 8.1 mph - N/A   Clear
9:55 PM 65.8 °F 50.0 °F 57% 30.02 in 10.0 mi SE 8.1 mph - N/A   Clear
9:56 PM 65.8 °F 50.0 °F 57% 30.02 in 10.0 mi SE 8.1 mph - N/A   Clear
10:15 PM 65.8 °F 50.0 °F 57% 30.02 in 10.0 mi SE 8.1 mph - N/A   Clear
10:20 PM 65.8 °F 50.0 °F 57% 30.02 in 10.0 mi ESE 8.1 mph - N/A   Clear
10:38 PM 65.8 °F 50.0 °F 57% 30.02 in 10.0 mi ESE 8.1 mph - N/A   Clear
10:56 PM 65.7 °F 50.0 °F 57% 30.02 in 10.0 mi ESE 6.9 mph - N/A   Clear
11:15 PM 66.2 °F 50.0 °F 56% 30.02 in 10.0 mi SE 9.2 mph 16.1 mph N/A   Scattered Clouds
11:35 PM 66.2 °F 50.4 °F 57% 30.01 in 10.0 mi SE 8.1 mph - N/A   Scattered Clouds
11:36 PM 66.2 °F 50.4 °F 57% 30.01 in 10.0 mi SE 10.4 mph - N/A   Mostly Cloudy
11:59 PM 66.2 °F 50.9 °F 58% 30.01 in 10.0 mi SE 11.5 mph - N/A   Overcast